Time,TemperatureF,DewpointF,PressureIn,WindDirection,WindDirectionDegrees,WindSpeedMPH,WindSpeedGustMPH,Humidity,HourlyPrecipIn,Conditions,Clouds,dailyrainin,SolarRadiationWatts/m^2,SoftwareType,DateUTC
2013-04-23 00:13:00,69.9,41.0,29.86,West,266,0.0,3.0,35,0.00,,,0.00,0,weatherlink.com 1.10,2013-04-23 07:13:00,
2013-04-23 00:28:00,67.9,40.0,29.86,West,262,2.0,2.0,36,0.00,,,0.00,0,weatherlink.com 1.10,2013-04-23 07:28:00,
2013-04-23 00:43:00,66.8,40.0,29.86,West,262,1.0,3.0,37,0.00,,,0.00,0,weatherlink.com 1.10,2013-04-23 07:43:00,
2013-04-23 00:58:00,66.8,38.0,29.86,West,274,2.0,4.0,35,0.00,,,0.00,0,weatherlink.com 1.10,2013-04-23 07:58:00,
2013-04-23 01:13:00,67.1,37.0,29.86,West,271,1.0,4.0,33,0.00,,,0.00,0,weatherlink.com 1.10,2013-04-23 08:13:00,
2013-04-23 01:28:00,67.4,36.0,29.86,SW,216,0.0,4.0,32,0.00,,,0.00,0,weatherlink.com 1.10,2013-04-23 08:28:00,
2013-04-23 01:43:00,67.1,35.0,29.86,WSW,251,0.0,4.0,31,0.00,,,0.00,0,weatherlink.com 1.10,2013-04-23 08:43:00,
2013-04-23 01:58:00,66.3,38.0,29.86,West,265,1.0,4.0,35,0.00,,,0.00,0,weatherlink.com 1.10,2013-04-23 08:58:00,
2013-04-23 02:13:00,65.5,31.0,29.86,West,265,0.0,3.0,28,0.00,,,0.00,0,weatherlink.com 1.10,2013-04-23 09:13:00,
2013-04-23 02:28:00,66.1,28.0,29.86,WSW,258,0.0,3.0,24,0.00,,,0.00,0,weatherlink.com 1.10,2013-04-23 09:28:00,
2013-04-23 02:43:00,66.6,26.0,29.86,WSW,254,0.0,2.0,22,0.00,,,0.00,0,weatherlink.com 1.10,2013-04-23 09:43:00,
2013-04-23 02:58:00,66.8,27.0,29.85,WSW,251,0.0,2.0,22,0.00,,,0.00,0,weatherlink.com 1.10,2013-04-23 09:58:00,
2013-04-23 03:13:00,66.7,27.0,29.85,WSW,248,0.0,1.0,22,0.00,,,0.00,0,weatherlink.com 1.10,2013-04-23 10:13:00,
2013-04-23 03:29:00,66.4,28.0,29.86,WSW,248,0.0,2.0,24,0.00,,,0.00,0,weatherlink.com 1.10,2013-04-23 10:29:00,
2013-04-23 03:44:00,65.3,29.0,29.86,WSW,248,0.0,1.0,26,0.00,,,0.00,0,weatherlink.com 1.10,2013-04-23 10:44:00,
2013-04-23 03:59:00,64.0,33.0,29.86,WSW,248,0.0,0.0,31,0.00,,,0.00,0,weatherlink.com 1.10,2013-04-23 10:59:00,
2013-04-23 04:14:00,62.9,33.0,29.86,WSW,248,0.0,0.0,33,0.00,,,0.00,0,weatherlink.com 1.10,2013-04-23 11:14:00,
2013-04-23 04:29:00,61.7,33.0,29.86,WSW,248,0.0,0.0,34,0.00,,,0.00,0,weatherlink.com 1.10,2013-04-23 11:29:00,
2013-04-23 04:44:00,60.9,32.0,29.87,WSW,248,0.0,1.0,34,0.00,,,0.00,0,weatherlink.com 1.10,2013-04-23 11:44:00,
2013-04-23 04:59:00,60.2,32.0,29.87,WSW,248,0.0,1.0,35,0.00,,,0.00,0,weatherlink.com 1.10,2013-04-23 11:59:00,
2013-04-23 05:14:00,59.4,32.0,29.87,WSW,248,0.0,1.0,36,0.00,,,0.00,0,weatherlink.com 1.10,2013-04-23 12:14:00,
2013-04-23 05:29:00,58.7,33.0,29.87,WSW,248,0.0,0.0,38,0.00,,,0.00,0,weatherlink.com 1.10,2013-04-23 12:29:00,
2013-04-23 05:44:00,58.1,33.0,29.88,WSW,248,0.0,0.0,39,0.00,,,0.00,0,weatherlink.com 1.10,2013-04-23 12:44:00,
2013-04-23 05:59:00,57.6,32.0,29.88,WSW,248,0.0,1.0,38,0.00,,,0.00,0,weatherlink.com 1.10,2013-04-23 12:59:00,
2013-04-23 06:14:00,57.1,33.0,29.88,WSW,248,0.0,1.0,40,0.00,,,0.00,0,weatherlink.com 1.10,2013-04-23 13:14:00,
2013-04-23 06:29:00,56.8,30.0,29.89,WSW,248,0.0,1.0,36,0.00,,,0.00,5,weatherlink.com 1.10,2013-04-23 13:29:00,
2013-04-23 06:44:00,56.6,31.0,29.89,WSW,248,0.0,0.0,38,0.00,,,0.00,21,weatherlink.com 1.10,2013-04-23 13:44:00,
2013-04-23 06:59:00,56.5,32.0,29.89,WSW,248,0.0,1.0,39,0.00,,,0.00,35,weatherlink.com 1.10,2013-04-23 13:59:00,
2013-04-23 07:14:00,56.7,32.0,29.89,WSW,248,0.0,1.0,40,0.00,,,0.00,46,weatherlink.com 1.10,2013-04-23 14:14:00,
2013-04-23 07:29:00,57.5,35.0,29.89,WSW,248,0.0,1.0,43,0.00,,,0.00,56,weatherlink.com 1.10,2013-04-23 14:29:00,
2013-04-23 07:44:00,58.4,35.0,29.90,SW,223,0.0,1.0,42,0.00,,,0.00,248,weatherlink.com 1.10,2013-04-23 14:44:00,
2013-04-23 07:59:00,60.5,35.0,29.90,South,172,0.0,2.0,38,0.00,,,0.00,304,weatherlink.com 1.10,2013-04-23 14:59:00,
2013-04-23 08:14:00,62.7,36.0,29.91,SSE,166,0.0,1.0,37,0.00,,,0.00,362,weatherlink.com 1.10,2013-04-23 15:14:00,
2013-04-23 08:29:00,64.3,38.0,29.91,SSE,166,0.0,1.0,38,0.00,,,0.00,417,weatherlink.com 1.10,2013-04-23 15:29:00,
2013-04-23 08:45:00,65.6,37.0,29.91,SSE,165,0.0,1.0,35,0.00,,,0.00,475,weatherlink.com 1.10,2013-04-23 15:45:00,
2013-04-23 09:00:00,67.3,35.0,29.91,East,100,0.0,2.0,30,0.00,,,0.00,526,weatherlink.com 1.10,2013-04-23 16:00:00,
2013-04-23 09:15:00,69.1,35.0,29.91,ESE,115,1.0,2.0,29,0.00,,,0.00,578,weatherlink.com 1.10,2013-04-23 16:15:00,
2013-04-23 09:30:00,70.8,34.0,29.92,SSE,157,0.0,2.0,26,0.00,,,0.00,629,weatherlink.com 1.10,2013-04-23 16:30:00,
2013-04-23 09:49:00,72.9,33.0,29.92,ESE,106,0.0,2.0,23,0.00,,,0.00,686,weatherlink.com 1.10,2013-04-23 16:49:00,
2013-04-23 10:00:00,74.2,35.0,29.92,ESE,121,0.0,4.0,24,0.00,,,0.00,722,weatherlink.com 1.10,2013-04-23 17:00:00,
2013-04-23 10:15:00,75.3,30.0,29.92,ESE,121,0.0,7.0,19,0.00,,,0.00,766,weatherlink.com 1.10,2013-04-23 17:15:00,
2013-04-23 10:30:00,74.7,27.0,29.92,SSE,156,0.0,7.0,17,0.00,,,0.00,800,weatherlink.com 1.10,2013-04-23 17:30:00,
2013-04-23 10:45:00,73.9,29.0,29.92,SSE,167,3.0,5.0,19,0.00,,,0.00,840,weatherlink.com 1.10,2013-04-23 17:45:00,
2013-04-23 11:01:00,74.8,32.0,29.92,East,96,1.0,4.0,21,0.00,,,0.00,872,weatherlink.com 1.10,2013-04-23 18:01:00,
2013-04-23 11:15:00,75.5,26.0,29.93,NE,56,3.0,4.0,16,0.00,,,0.00,896,weatherlink.com 1.10,2013-04-23 18:15:00,
2013-04-23 11:30:00,75.8,29.0,29.92,NE,45,3.0,6.0,18,0.00,,,0.00,919,weatherlink.com 1.10,2013-04-23 18:30:00,
2013-04-23 11:45:00,77.0,29.0,29.92,ESE,121,0.0,6.0,17,0.00,,,0.00,937,weatherlink.com 1.10,2013-04-23 18:45:00,
2013-04-23 12:00:00,76.8,27.0,29.92,East,81,2.0,5.0,16,0.00,,,0.00,954,weatherlink.com 1.10,2013-04-23 19:00:00,
2013-04-23 12:15:00,78.3,35.0,29.91,NE,53,2.0,3.0,21,0.00,,,0.00,969,weatherlink.com 1.10,2013-04-23 19:15:00,
2013-04-23 12:30:00,77.4,36.0,29.91,East,93,2.0,2.0,22,0.00,,,0.00,967,weatherlink.com 1.10,2013-04-23 19:30:00,
2013-04-23 12:45:00,75.7,29.0,29.90,West,274,0.0,5.0,18,0.00,,,0.00,969,weatherlink.com 1.10,2013-04-23 19:45:00,
2013-04-23 13:00:00,79.1,31.0,29.90,ESE,105,2.0,3.0,17,0.00,,,0.00,972,weatherlink.com 1.10,2013-04-23 20:00:00,
2013-04-23 13:15:00,79.2,33.0,29.90,East,84,1.0,3.0,19,0.00,,,0.00,95,weatherlink.com 1.10,2013-04-23 20:15:00,
2013-04-23 13:30:00,79.9,33.0,29.89,South,179,2.0,3.0,18,0.00,,,0.00,100,weatherlink.com 1.10,2013-04-23 20:30:00,
2013-04-23 13:45:00,80.0,33.0,29.88,East,100,0.0,3.0,18,0.00,,,0.00,485,weatherlink.com 1.10,2013-04-23 20:45:00,
2013-04-23 14:00:00,80.0,31.0,29.88,SSW,202,0.0,2.0,17,0.00,,,0.00,339,weatherlink.com 1.10,2013-04-23 21:00:00,
2013-04-23 14:15:00,79.9,28.0,29.88,South,182,0.0,2.0,15,0.00,,,0.00,58,weatherlink.com 1.10,2013-04-23 21:15:00,
2013-04-23 14:30:00,79.7,30.0,29.88,SE,134,0.0,2.0,16,0.00,,,0.00,56,weatherlink.com 1.10,2013-04-23 21:30:00,
2013-04-23 14:45:00,78.9,41.0,29.87,West,269,2.0,5.0,26,0.00,,,0.00,49,weatherlink.com 1.10,2013-04-23 21:45:00,
2013-04-23 15:00:00,77.6,40.0,29.87,West,272,2.0,6.0,26,0.00,,,0.00,171,weatherlink.com 1.10,2013-04-23 22:00:00,
2013-04-23 15:15:00,76.9,39.0,29.87,West,263,3.0,6.0,26,0.00,,,0.00,51,weatherlink.com 1.10,2013-04-23 22:15:00,
2013-04-23 15:30:00,76.8,39.0,29.86,West,275,2.0,4.0,26,0.00,,,0.00,44,weatherlink.com 1.10,2013-04-23 22:30:00,
2013-04-23 15:45:00,77.0,39.0,29.86,West,274,1.0,4.0,25,0.00,,,0.00,42,weatherlink.com 1.10,2013-04-23 22:45:00,
2013-04-23 16:02:00,76.6,39.0,29.85,West,264,4.0,6.0,26,0.00,,,0.00,39,weatherlink.com 1.10,2013-04-23 23:02:00,
2013-04-23 16:16:00,75.7,36.0,29.85,West,275,5.0,7.0,24,0.00,,,0.00,39,weatherlink.com 1.10,2013-04-23 23:16:00,
2013-04-23 16:31:00,75.1,38.0,29.84,West,260,5.0,6.0,26,0.00,,,0.00,37,weatherlink.com 1.10,2013-04-23 23:31:00,
2013-04-23 16:46:00,74.7,38.0,29.85,WNW,286,2.0,5.0,27,0.00,,,0.00,42,weatherlink.com 1.10,2013-04-23 23:46:00,
2013-04-23 17:01:00,74.0,38.0,29.84,WNW,282,1.0,7.0,27,0.00,,,0.00,35,weatherlink.com 1.10,2013-04-24 00:01:00,
2013-04-23 17:16:00,73.5,41.0,29.84,West,269,3.0,7.0,31,0.00,,,0.00,30,weatherlink.com 1.10,2013-04-24 00:16:00,
2013-04-23 17:31:00,72.7,41.0,29.85,WNW,282,1.0,7.0,32,0.00,,,0.00,30,weatherlink.com 1.10,2013-04-24 00:31:00,
2013-04-23 17:46:00,72.0,43.0,29.85,West,279,0.0,5.0,35,0.00,,,0.00,26,weatherlink.com 1.10,2013-04-24 00:46:00,
2013-04-23 18:01:00,71.2,44.0,29.85,West,274,4.0,5.0,38,0.00,,,0.00,23,weatherlink.com 1.10,2013-04-24 01:01:00,
2013-04-23 18:16:00,70.2,45.0,29.84,West,275,0.0,6.0,40,0.00,,,0.00,21,weatherlink.com 1.10,2013-04-24 01:16:00,
2013-04-23 18:31:00,68.9,45.0,29.84,West,265,4.0,6.0,42,0.00,,,0.00,19,weatherlink.com 1.10,2013-04-24 01:31:00,
2013-04-23 18:46:00,67.6,45.0,29.84,West,277,3.0,9.0,45,0.00,,,0.00,18,weatherlink.com 1.10,2013-04-24 01:46:00,
2013-04-23 19:01:00,66.3,46.0,29.84,West,271,4.0,8.0,48,0.00,,,0.00,16,weatherlink.com 1.10,2013-04-24 02:01:00,
2013-04-23 19:16:00,64.9,46.0,29.84,West,271,6.0,8.0,50,0.00,,,0.00,12,weatherlink.com 1.10,2013-04-24 02:16:00,
2013-04-23 19:31:00,63.5,45.0,29.84,West,262,3.0,6.0,52,0.00,,,0.00,9,weatherlink.com 1.10,2013-04-24 02:31:00,
2013-04-23 19:46:00,62.5,45.0,29.84,West,274,3.0,5.0,53,0.00,,,0.00,0,weatherlink.com 1.10,2013-04-24 02:46:00,
2013-04-23 20:01:00,61.8,44.0,29.84,West,280,2.0,6.0,52,0.00,,,0.00,0,weatherlink.com 1.10,2013-04-24 03:01:00,
2013-04-23 20:16:00,61.5,43.0,29.85,West,275,2.0,7.0,52,0.00,,,0.00,0,weatherlink.com 1.10,2013-04-24 03:16:00,
2013-04-23 20:31:00,61.3,43.0,29.85,West,280,1.0,5.0,52,0.00,,,0.00,0,weatherlink.com 1.10,2013-04-24 03:31:00,
2013-04-23 20:46:00,60.9,43.0,29.85,West,266,3.0,4.0,53,0.00,,,0.00,0,weatherlink.com 1.10,2013-04-24 03:46:00,
2013-04-23 21:01:00,60.0,44.0,29.86,West,267,2.0,3.0,55,0.00,,,0.00,0,weatherlink.com 1.10,2013-04-24 04:01:00,
2013-04-23 21:16:00,59.3,42.0,29.86,West,265,2.0,4.0,53,0.00,,,0.00,0,weatherlink.com 1.10,2013-04-24 04:16:00,
2013-04-23 21:31:00,58.8,42.0,29.87,West,268,1.0,3.0,54,0.00,,,0.00,0,weatherlink.com 1.10,2013-04-24 04:31:00,
2013-04-23 21:46:00,58.2,42.0,29.87,West,268,0.0,2.0,55,0.00,,,0.00,0,weatherlink.com 1.10,2013-04-24 04:46:00,
2013-04-23 22:01:00,57.6,42.0,29.87,West,269,0.0,1.0,56,0.00,,,0.00,0,weatherlink.com 1.10,2013-04-24 05:01:00,
2013-04-23 22:16:00,56.8,42.0,29.87,West,269,0.0,1.0,59,0.00,,,0.00,0,weatherlink.com 1.10,2013-04-24 05:16:00,
2013-04-23 22:31:00,55.8,43.0,29.87,West,269,0.0,1.0,63,0.00,,,0.00,0,weatherlink.com 1.10,2013-04-24 05:31:00,
2013-04-23 22:46:00,54.5,43.0,29.87,West,269,0.0,1.0,66,0.00,,,0.00,0,weatherlink.com 1.10,2013-04-24 05:46:00,
2013-04-23 23:01:00,53.7,43.0,29.87,West,269,0.0,1.0,67,0.00,,,0.00,0,weatherlink.com 1.10,2013-04-24 06:01:00,
2013-04-23 23:16:00,53.1,42.0,29.87,West,269,0.0,0.0,67,0.00,,,0.00,0,weatherlink.com 1.10,2013-04-24 06:16:00,
2013-04-23 23:31:00,52.5,43.0,29.86,West,269,0.0,0.0,69,0.00,,,0.00,0,weatherlink.com 1.10,2013-04-24 06:31:00,
2013-04-23 23:46:00,52.0,42.0,29.86,West,269,0.0,0.0,69,0.00,,,0.00,0,weatherlink.com 1.10,2013-04-24 06:46:00,